Location: Cussy
(47.0410°N, 4.6412°E)
Time: 13:57:52
(UTC+00:00)

H-2A R/B - Pass Details

Date: 30 November 2020
Orbit: 499 x 540 km, 97.3° (Epoch: 22 January)

Event Time Altitude Azimuth Distance (km) Brightness Sun altitude
Rises 16:38:40 0° 175° (S) 2,655 6.6 -7.5°
Reaches altitude 10° 16:40:47 10° 179° (S) 1,777 5.7 -7.8°
Maximum altitude 16:44:35 59° 260° (W) 623 3.5 -8.4°
Drops below altitude 10° 16:48:27 10° 340° (NNW) 1,809 5.4 -9.0°
Sets 16:50:37 0° 345° (NNW) 2,710 6.3 -9.4°
